Rutland, VT

7:44 PM EDT on May 22, 2017 (GMT -0400)
Rutland State

Weather History for KRUT - March, 2013

Change the Weather History Date:

Monday, March 25, 2013

  Actual Average Record
Temperature  
Mean Temperature 32 °F -  
Max Temperature 41 °F - 72 °F (1986)
Min Temperature 23 °F - 5 °F (1956)
Degree Days  
Heating Degree Days 33    
Month to date heating degree days 884  
Since 1 July heating degree days 5760  
Cooling Degree Days 0    
Month to date cooling degree days 0  
Year to date cooling degree days 0  
Moisture  
Dew Point 22 °F    
Average Humidity 65    
Maximum Humidity 88    
Minimum Humidity 41    
Precipitation  
Precipitation 0.00 in - 1.04 in (1969)
Month to date precipitation 0.82  
Year to date precipitation 2.57  
Sea Level Pressure  
Sea Level Pressure 29.65 in    
Wind  
Wind Speed 4 mph (ENE)    
Max Wind Speed 12 mph    
Max Gust Speed 17 mph    
Visibility 10 miles    
Events      
T = Trace of Precipitation, MM = Missing Value Source: NWS Daily Summary

Daily Weather History Graph

Daily Weather History Graph

Search for Another Location

Airport or City:

Trip Planner

Search our weather history database for the weather conditions in past years. The results will help you decide how hot, cold, wet, or windy it might be!

Date:

Astronomy

Mar. 25, 2013 Rise Set
Actual Time 6:45 AM EDT 7:10 PM EDT
Civil Twilight 6:16 AM EDT 7:39 PM EDT
Nautical Twilight 5:43 AM EDT 8:12 PM EDT
Astronomical Twilight 5:08 AM EDT 8:47 PM EDT
Moon 5:37 PM EDT (3/25) 5:30 AM EDT (3/25)
Length of Visible Light 13h 22m
Length of Day
12h 24m
Waxing Gibbous, 96% of the Moon is Illuminated
Mar 25
Waxing Gibbous
Mar 27
Full
Apr 3
Last Quarter
Apr 10
New
Apr 18
First Quarter

Hourly Weather History & Observations

Time (EDT) Temp. Windchill Dew Point Humidity Pressure Visibility Wind Dir Wind Speed Gust Speed Precip Events Conditions
12:35 AM 26.6 °F 20.0 °F 19.4 °F 74% 29.78 in 10.0 mi SE 5.8 mph - N/A   Partly Cloudy
12:55 AM 26.6 °F - 19.4 °F 74% 29.78 in 10.0 mi Calm Calm - N/A   Mostly Cloudy
1:15 AM 26.6 °F - 19.4 °F 74% 29.77 in 10.0 mi Calm Calm - N/A   Mostly Cloudy
1:35 AM 26.6 °F - 19.4 °F 74% 29.77 in 10.0 mi Calm Calm - N/A   Partly Cloudy
1:55 AM 26.6 °F 22.6 °F 17.6 °F 69% 29.75 in 10.0 mi East 3.5 mph - N/A   Clear
2:15 AM 24.8 °F - 19.4 °F 80% 29.75 in 10.0 mi Calm Calm - N/A   Clear
2:35 AM 24.8 °F 17.9 °F 19.4 °F 80% 29.75 in 10.0 mi SE 5.8 mph - N/A   Clear
2:55 AM 24.8 °F 16.9 °F 19.4 °F 80% 29.75 in 10.0 mi SE 6.9 mph - N/A   Clear
3:15 AM 24.8 °F 19.1 °F 19.4 °F 80% 29.75 in 10.0 mi ESE 4.6 mph - N/A   Clear
3:35 AM 24.8 °F 20.5 °F 19.4 °F 80% 29.74 in 10.0 mi SE 3.5 mph - N/A   Clear
3:55 AM 24.8 °F 19.1 °F 19.4 °F 80% 29.74 in 10.0 mi SE 4.6 mph - N/A   Clear
4:15 AM 24.8 °F 20.5 °F 19.4 °F 80% 29.73 in 10.0 mi ESE 3.5 mph - N/A   Clear
4:35 AM 24.8 °F - 19.4 °F 80% 29.72 in 10.0 mi Calm Calm - N/A   Clear
5:15 AM 24.8 °F - 19.4 °F 80% 29.72 in 10.0 mi Calm Calm - N/A   Clear
5:35 AM 24.8 °F - 19.4 °F 80% 29.72 in 10.0 mi Calm Calm - N/A   Clear
6:15 AM 23.0 °F - 19.4 °F 86% 29.71 in 10.0 mi Calm Calm - N/A   Clear
6:35 AM 23.0 °F - 17.6 °F 80% 29.71 in 10.0 mi Calm Calm - N/A   Clear
6:55 AM 23.0 °F - 19.4 °F 86% 29.71 in 10.0 mi Calm Calm - N/A   Clear
7:35 AM 24.8 °F - 19.4 °F 80% 29.71 in 10.0 mi Calm Calm - N/A   Clear
7:55 AM 24.8 °F - 19.4 °F 80% 29.72 in 10.0 mi Calm Calm - N/A   Clear
8:15 AM 26.6 °F - 21.2 °F 80% 29.72 in 10.0 mi Calm Calm - N/A   Clear
8:35 AM 28.4 °F - 21.2 °F 74% 29.72 in 10.0 mi Calm Calm - N/A   Clear
8:55 AM 28.4 °F - 21.2 °F 74% 29.71 in 10.0 mi Calm Calm - N/A   Scattered Clouds
9:15 AM 28.4 °F - 23.0 °F 80% 29.71 in 10.0 mi Calm Calm - N/A   Overcast
9:55 AM 30.2 °F - 21.2 °F 69% 29.70 in 10.0 mi Calm Calm - N/A   Overcast
10:15 AM 33.8 °F 30.8 °F 24.8 °F 70% 29.69 in 10.0 mi North 3.5 mph - N/A   Overcast
10:35 AM 33.8 °F - 24.8 °F 70% 29.68 in 10.0 mi Calm Calm - N/A   Overcast
10:55 AM 37.4 °F 29.8 °F 24.8 °F 60% 29.67 in 10.0 mi East 11.5 mph - N/A   Overcast
11:15 AM 37.4 °F 30.8 °F 24.8 °F 60% 29.66 in 10.0 mi East 9.2 mph - N/A   Overcast
11:35 AM 37.4 °F 30.3 °F 24.8 °F 60% 29.66 in 10.0 mi ENE 10.4 mph - N/A   Overcast
11:55 AM 39.2 °F 33.6 °F 23.0 °F 52% 29.65 in 10.0 mi East 8.1 mph - N/A   Overcast
12:35 PM 37.4 °F 28.9 °F 21.2 °F 52% 29.64 in 10.0 mi NE 13.8 mph 17.3 mph N/A   Overcast
12:55 PM 39.2 °F 33.0 °F 24.8 °F 56% 29.63 in 10.0 mi ENE 9.2 mph - N/A   Overcast
1:15 PM 39.2 °F 33.0 °F 19.4 °F 45% 29.62 in 10.0 mi NNE 9.2 mph 17.3 mph N/A   Overcast
1:35 PM 41.0 °F 34.3 °F 21.2 °F 45% 29.61 in 10.0 mi East 11.5 mph 18.4 mph N/A   Overcast
1:55 PM 39.2 °F 34.2 °F 19.4 °F 45% 29.60 in 10.0 mi ESE 6.9 mph - N/A   Overcast
2:15 PM 39.2 °F 35.9 °F 19.4 °F 45% 29.60 in 10.0 mi ENE 4.6 mph - N/A   Overcast
2:35 PM 39.2 °F 33.6 °F 21.2 °F 49% 29.59 in 10.0 mi NE 8.1 mph - N/A   Overcast
2:55 PM 39.2 °F 35.9 °F 21.2 °F 49% 29.58 in 10.0 mi NE 4.6 mph - N/A   Overcast
3:35 PM 41.0 °F 35.2 °F 19.4 °F 42% 29.56 in 10.0 mi ENE 9.2 mph - N/A   Overcast
3:55 PM 41.0 °F 35.8 °F 19.4 °F 42% 29.55 in 10.0 mi East 8.1 mph 17.3 mph N/A   Overcast
4:15 PM 41.0 °F 34.7 °F 19.4 °F 42% 29.54 in 10.0 mi ENE 10.4 mph 17.3 mph N/A   Overcast
4:35 PM 41.0 °F 34.7 °F 19.4 °F 42% 29.53 in 10.0 mi NE 10.4 mph - N/A   Overcast
4:55 PM 39.2 °F 34.2 °F 24.8 °F 56% 29.54 in 10.0 mi NNW 6.9 mph - N/A   Overcast
5:15 PM 39.2 °F 33.6 °F 24.8 °F 56% 29.54 in 10.0 mi NW 8.1 mph - N/A   Overcast
5:55 PM 39.2 °F 33.6 °F 24.8 °F 56% 29.55 in 10.0 mi NNW 8.1 mph - N/A   Overcast
6:15 PM 37.4 °F 33.8 °F 24.8 °F 60% 29.56 in 10.0 mi NNW 4.6 mph - N/A   Overcast
6:35 PM 37.4 °F 32.1 °F 24.8 °F 60% 29.56 in 10.0 mi North 6.9 mph - N/A   Overcast
6:55 PM 37.4 °F 32.1 °F 26.6 °F 65% 29.57 in 10.0 mi North 6.9 mph - N/A   Overcast
7:15 PM 37.4 °F - 26.6 °F 65% 29.58 in 10.0 mi Calm Calm - N/A   Overcast
7:55 PM 35.6 °F - 26.6 °F 70% 29.58 in 10.0 mi Calm Calm - N/A   Overcast
8:35 PM 35.6 °F 32.8 °F 26.6 °F 70% 29.59 in 10.0 mi NE 3.5 mph - N/A   Overcast
8:55 PM 33.8 °F 30.8 °F 26.6 °F 75% 29.60 in 10.0 mi North 3.5 mph - N/A   Overcast
9:15 PM 35.6 °F 32.8 °F 24.8 °F 65% 29.60 in 10.0 mi NE 3.5 mph - N/A   Overcast
9:35 PM 33.8 °F - 26.6 °F 75% 29.60 in 10.0 mi Calm Calm - N/A   Overcast
9:55 PM 35.6 °F 32.8 °F 24.8 °F 65% 29.60 in 10.0 mi North 3.5 mph - N/A   Overcast
10:15 PM 33.8 °F - 26.6 °F 75% 29.60 in 10.0 mi Calm Calm - N/A   Overcast
10:35 PM 33.8 °F 30.8 °F 26.6 °F 75% 29.60 in 10.0 mi NNW 3.5 mph - N/A   Overcast
11:15 PM 33.8 °F - 26.6 °F 75% 29.59 in 10.0 mi Calm Calm - N/A   Overcast
11:35 PM 33.8 °F - 26.6 °F 75% 29.60 in 10.0 mi Calm Calm - N/A   Overcast
11:55 PM 33.8 °F - 26.6 °F 75% 29.59 in 10.0 mi Calm Calm - N/A   Overcast